Theta_e
304 304 305 305 305 304 303 303 304 303 304 293 290 292 287 284 285 299 302 305 307 299 291 294 293 290 292 296 294 296 294 291 292 292 292 290 292 291 290 289 288 288 288 286 285 287 284 284 285 283 284 285 288 290 291 291 290 292 287 289 288 291 278 277 279 278 278 284 285 286 285 289 287 286 283 285 285 283 282 277 277 280 275 276 274 273 281
303 304 305 305 305 305 304 303 303 304 304 293 293 287 286 286 287 292 301 305 304 295 286 286 289 291 294 294 294 296 296 294 292 291 292 290 290 289 289 290 291 290 289 288 287 287 284 285 286 285 285 288 291 291 290 292 290 291 289 289 290 283 280 282 273 272 277 278 283 285 284 286 282 282 283 285 284 280 277 275 273 277 277 279 276 275 282
303 304 304 304 304 304 304 304 303 304 305 300 293 286 287 286 288 290 294 300 301 291 291 290 289 290 291 292 291 292 294 296 296 295 293 294 291 290 290 291 291 289 291 289 290 290 287 283 287 286 285 289 290 291 289 291 290 292 291 294 293 287 281 282 276 275 274 271 275 276 278 283 282 280 282 286 287 283 282 280 278 277 277 279 276 280 286
302 303 303 304 304 304 304 304 304 304 305 305 293 293 286 282 278 284 287 292 295 295 295 293 290 290 290 289 291 293 291 294 297 298 296 297 294 292 291 292 291 288 290 288 289 288 288 286 284 286 286 286 288 292 290 292 290 292 294 292 291 283 282 284 284 282 280 282 280 281 283 281 283 281 285 285 285 286 286 280 278 280 280 276 280 284 286
302 302 303 304 305 304 305 305 305 304 304 304 293 290 287 286 278 281 279 286 288 289 294 291 290 288 293 286 290 289 291 293 294 298 293 297 296 294 294 292 291 288 288 287 287 288 288 288 286 285 285 286 288 291 292 292 292 294 292 292 285 281 282 284 284 283 283 282 282 283 286 286 285 284 283 284 285 284 285 284 283 286 278 280 285 284 283
301 302 302 303 304 304 305 305 305 304 304 305 295 287 288 279 282 282 285 280 277 284 286 291 290 289 290 288 291 289 290 290 289 294 295 296 297 293 293 293 294 293 290 289 283 287 286 286 284 286 285 288 288 289 291 291 293 292 290 290 288 283 283 283 284 283 283 283 285 285 285 284 283 282 282 283 283 283 283 285 287 285 283 282 286 283 283
301 301 301 302 303 304 304 305 305 305 303 302 293 285 286 286 284 284 286 281 280 284 286 290 290 289 289 288 289 288 289 288 292 291 291 293 292 295 288 291 292 292 293 292 288 288 285 284 286 284 284 285 286 285 289 292 290 289 290 291 289 288 284 283 283 282 283 284 283 284 285 284 283 282 283 284 283 284 285 285 286 284 283 284 285 282 284
300 300 301 301 302 303 303 304 304 305 303 300 292 287 283 282 282 281 283 283 281 283 284 288 289 287 291 286 287 288 289 288 291 291 292 288 291 295 291 291 292 292 292 293 289 291 292 291 287 287 288 285 286 286 287 287 288 289 290 291 292 290 285 288 285 283 282 284 284 283 283 284 284 284 284 285 286 285 285 284 284 284 283 285 286 285 286
300 300 300 301 301 302 303 303 305 304 303 294 292 289 286 285 285 287 281 278 279 283 283 284 286 285 288 286 288 287 286 288 291 290 293 292 290 292 291 293 290 291 292 291 292 294 294 294 294 294 293 288 291 290 288 291 287 287 288 288 289 290 283 284 284 283 283 285 285 285 285 284 285 286 287 287 286 283 283 283 284 284 285 285 283 283 286
299 299 300 300 300 301 302 303 303 303 304 296 293 289 291 288 287 287 285 277 284 279 281 282 284 282 287 288 288 287 287 287 291 288 291 293 294 294 294 293 292 289 291 291 293 296 295 295 295 296 297 295 294 296 294 291 291 287 289 289 288 288 286 284 284 283 283 287 285 285 284 284 283 284 287 289 288 288 288 288 287 288 289 285 283 285 291
298 299 299 300 300 301 302 302 303 303 301 295 292 290 291 288 286 285 284 276 278 279 280 281 283 284 285 288 286 288 286 287 290 287 286 291 292 294 295 293 291 288 290 294 297 297 296 295 294 295 295 294 293 292 293 292 292 292 290 287 286 288 287 285 286 282 283 281 282 284 283 278 280 291 292 292 290 290 287 288 290 291 290 288 291 291 292
298 298 299 299 299 300 301 302 303 303 301 299 298 293 292 291 286 283 281 277 278 281 280 279 283 282 282 285 286 286 286 285 286 290 287 287 291 292 293 293 293 287 291 296 296 296 295 295 295 295 292 291 291 291 292 292 290 289 291 291 286 286 287 285 285 283 281 277 282 281 276 279 290 292 292 294 293 292 290 291 292 292 292 291 292 293 293
298 298 298 299 299 299 300 300 301 302 302 300 298 293 294 294 290 284 281 277 275 277 277 277 281 283 283 284 285 286 287 287 287 288 288 288 288 290 291 292 291 291 296 295 296 295 289 285 285 285 284 284 286 288 289 289 288 290 290 288 288 285 286 282 283 284 282 279 282 276 277 286 286 286 288 286 289 289 287 286 288 290 291 292 292 293 295
298 298 298 298 298 299 299 300 300 301 302 301 297 296 296 294 290 287 284 279 281 280 280 279 278 278 281 281 283 284 285 286 286 287 286 287 288 288 289 291 293 296 296 297 293 290 284 281 281 282 282 281 281 281 282 286 287 289 289 289 288 287 284 283 283 286 281 282 281 281 285 284 285 285 284 286 284 285 286 283 286 289 291 292 292 293 294
297 297 297 298 298 298 299 299 300 300 301 301 298 297 296 295 294 289 286 285 279 278 280 277 280 281 281 280 283 282 282 282 284 285 285 286 286 286 289 291 290 295 296 294 286 285 282 281 279 280 279 281 277 278 277 278 280 287 290 290 289 287 286 283 284 282 286 282 279 279 280 276 282 285 287 287 287 289 289 288 284 285 284 286 290 290 287
297 297 297 297 297 298 298 298 299 299 300 301 298 296 296 297 296 294 290 286 282 276 280 284 283 281 280 279 282 282 280 280 281 283 280 283 282 286 289 287 289 291 291 287 286 284 281 282 279 281 277 280 280 274 271 275 277 278 285 287 288 288 288 284 285 283 283 281 278 279 277 280 286 284 286 285 285 290 287 286 282 284 282 282 284 284 285
296 296 296 297 297 297 298 298 298 299 299 300 295 295 295 299 296 293 290 287 285 280 286 286 284 282 278 276 279 280 282 282 283 280 277 280 280 282 287 287 287 290 290 289 284 283 282 279 278 278 278 276 276 275 274 270 271 276 283 286 286 286 285 284 283 280 282 281 280 277 282 280 284 284 284 286 285 290 288 277 277 285 282 281 282 283 284
297 297 297 297 297 297 297 297 298 298 298 300 297 294 294 298 298 296 291 287 284 283 286 286 285 282 281 281 280 281 282 280 279 279 278 277 279 281 283 286 287 288 289 287 285 283 282 281 279 278 278 278 278 276 274 274 271 279 282 284 283 284 284 284 280 282 282 283 281 282 282 285 282 284 286 284 287 287 278 276 282 284 283 281 283 283 283
297 298 297 297 297 297 297 297 298 298 298 298 296 294 294 298 298 297 291 286 285 281 287 289 289 286 286 286 282 282 283 286 284 283 276 279 278 280 283 282 287 286 287 283 283 282 283 281 282 275 276 276 277 278 275 273 273 281 284 282 283 284 285 285 285 282 281 281 279 279 282 282 284 282 284 284 285 278 277 284 283 284 283 281 282 282 280
297 298 297 296 297 297 297 297 297 297 298 298 296 291 294 297 298 297 291 284 286 284 288 286 288 285 287 286 282 283 281 283 284 282 280 281 280 284 286 284 284 283 283 284 283 280 282 280 282 277 276 273 276 277 273 271 278 279 278 284 283 283 283 281 282 284 283 280 278 278 273 283 285 286 283 285 281 281 285 282 282 282 283 282 281 281 281
296 298 297 296 296 297 297 297 297 297 297 298 297 291 290 295 297 297 297 291 285 283 285 290 289 289 288 287 288 288 286 284 285 284 282 281 284 288 281 281 285 283 281 285 281 281 279 281 279 276 277 280 278 276 273 278 274 278 281 283 282 287 281 281 284 286 278 279 276 277 284 286 285 286 282 282 281 284 283 286 283 281 281 282 282 282 282
296 297 297 297 296 296 297 297 297 297 297 298 297 291 289 293 296 297 297 295 287 284 286 287 287 288 291 291 290 291 290 289 289 290 284 282 284 287 281 284 284 283 283 279 277 277 276 274 275 273 275 275 275 277 271 276 270 275 275 279 276 285 282 284 281 287 282 280 282 284 284 284 285 281 282 285 285 283 283 284 285 284 283 282 283 283 283
295 296 297 297 296 296 296 296 296 296 297 298 295 288 287 290 291 296 295 289 291 290 290 288 290 290 289 290 290 291 291 293 291 288 289 285 280 282 280 280 282 284 282 282 282 279 276 278 276 275 274 274 278 275 272 271 272 271 277 279 281 280 282 279 281 282 282 281 282 282 281 283 285 284 283 283 284 283 283 285 286 287 286 285 286 287 287
295 296 296 296 297 296 296 296 296 296 297 298 296 289 287 289 292 292 290 290 286 283 286 287 285 283 286 286 290 290 288 287 290 289 288 292 282 277 280 281 283 280 279 282 281 282 276 273 276 276 276 275 277 274 276 273 273 272 273 275 277 278 280 280 279 279 283 279 282 282 284 282 281 282 281 282 285 286 287 287 287 286 285 284 282 284 284
295 296 296 294 296 296 296 296 296 296 296 297 295 293 291 289 291 292 288 281 282 282 278 282 284 288 292 292 291 288 289 292 292 292 290 290 290 286 283 284 285 285 283 284 282 281 275 275 277 273 276 277 282 276 275 275 274 275 273 274 273 278 280 281 277 278 281 278 281 282 282 281 281 281 284 285 285 286 283 283 282 282 282 283 282 282 283
294 295 296 296 296 296 295 295 296 295 295 296 295 289 287 287 291 293 290 289 285 283 278 278 282 290 289 289 288 291 293 291 290 289 290 290 291 292 287 284 282 282 283 282 281 284 276 274 270 269 277 279 282 273 271 278 274 276 277 278 279 278 282 275 277 280 277 278 279 278 280 281 280 280 280 281 282 281 281 281 281 282 282 282 282 282 282
294 294 295 296 296 296 295 295 295 295 295 295 293 290 289 288 292 291 289 287 283 278 280 277 281 282 286 287 291 292 290 291 290 290 288 287 288 288 288 287 286 282 283 278 277 276 270 267 275 278 276 277 277 271 271 275 276 273 271 276 279 280 278 277 278 273 274 279 279 277 277 276 280 279 280 279 280 281 281 280 281 280 279 279 279 280 280
294 295 295 295 295 294 294 295 295 296 296 295 293 289 289 289 290 293 294 291 285 278 280 280 280 282 286 286 289 288 290 292 292 289 287 286 287 289 288 287 285 283 280 281 276 273 271 275 273 272 270 269 276 274 275 274 275 269 271 277 280 281 280 278 275 277 275 279 278 280 281 279 279 280 278 278 279 280 280 279 279 277 277 277 278 278 278
293 293 293 294 295 294 293 294 295 296 296 294 289 288 285 288 290 293 294 293 290 284 282 282 284 282 278 281 290 286 290 292 291 290 287 285 287 288 288 287 285 284 281 278 278 274 270 272 277 274 272 277 275 268 272 271 270 275 278 280 279 278 279 281 281 278 278 278 280 278 279 280 277 277 276 275 277 279 277 276 276 275 275 275 276 277 277
293 293 293 294 294 294 294 294 295 295 295 290 285 281 278 282 288 290 294 293 289 287 280 278 275 278 284 281 281 285 287 289 289 288 287 286 286 286 286 286 283 284 279 279 279 275 276 273 273 276 277 281 275 272 273 267 269 275 278 278 280 278 278 279 280 280 280 279 278 278 278 278 277 275 274 275 275 277 275 273 273 272 273 274 274 274 275
293 293 293 293 294 295 295 294 294 294 294 287 283 277 276 274 281 292 294 292 292 287 282 281 277 284 279 281 283 285 286 287 286 286 286 286 286 286 286 286 280 285 278 278 278 278 277 271 274 275 278 283 279 273 272 270 265 264 276 280 280 279 280 280 275 274 276 275 276 277 277 277 276 275 274 273 273 273 272 272 271 272 272 272 272 273 273
293 293 293 294 294 294 295 295 295 294 290 286 282 279 280 282 286 291 294 294 291 286 281 276 277 276 275 281 280 284 286 287 287 285 284 286 282 283 283 286 283 282 284 278 274 275 272 275 276 273 276 283 282 269 272 271 270 270 275 276 277 278 279 276 273 272 271 272 277 278 277 274 274 276 275 272 272 271 270 270 269 269 270 269 270 270 269
292 292 293 294 293 293 294 295 294 293 288 290 294 294 293 295 297 295 296 292 288 284 285 279 273 278 278 277 280 280 286 284 283 284 281 286 283 284 280 282 283 282 289 282 275 276 276 276 273 276 278 280 276 275 274 274 275 279 280 277 275 275 273 271 270 269 270 269 273 279 277 276 272 271 271 272 270 268 267 267 267 267 265 264 264 265 265
293 292 292 293 293 292 293 294 294 293 294 288 283 285 289 294 294 296 293 290 285 285 284 278 275 274 272 284 276 280 287 282 281 284 280 285 283 284 280 283 282 281 277 280 277 276 271 276 274 273 276 269 272 274 272 274 278 279 279 274 271 271 271 270 269 269 267 267 267 269 270 270 270 270 270 269 268 266 266 265 264 263 263 263 263 264 264
292 293 292 293 294 293 292 292 289 287 284 284 285 288 290 294 295 295 293 287 279 277 278 278 278 274 272 271 273 280 287 284 280 283 281 283 285 281 282 279 281 279 277 283 276 274 276 277 277 273 271 272 273 272 275 278 279 279 276 273 269 271 271 272 270 264 264 264 265 267 268 269 269 267 267 267 264 264 263 262 262 262 261 262 262 262 262
291 291 292 292 293 293 289 289 286 285 282 283 284 291 294 295 294 291 290 289 285 279 277 277 278 273 275 272 272 278 286 281 284 284 283 283 280 282 280 280 277 280 280 280 275 277 273 278 276 270 275 275 273 276 278 280 279 278 275 278 272 274 273 275 271 262 262 263 263 266 265 266 266 266 264 263 263 261 262 261 261 260 259 260 261 261 260
291 291 293 291 289 284 281 282 287 285 284 287 290 293 294 293 287 286 284 283 282 283 278 277 274 275 276 274 274 278 284 275 283 280 282 280 277 281 281 280 276 280 277 275 275 275 278 279 273 271 275 272 275 280 280 279 280 279 276 272 267 264 262 261 262 263 263 261 262 263 263 263 262 262 262 261 261 260 259 259 260 257 255 257 257 258 257
292 292 286 282 280 278 277 280 282 287 293 292 292 286 285 286 277 280 280 278 281 281 275 278 275 278 280 278 271 281 282 279 283 277 279 282 279 274 280 277 277 280 270 275 276 279 274 272 271 274 274 277 272 268 271 264 261 262 265 264 263 261 261 260 260 264 265 264 264 260 259 260 260 260 259 258 258 257 259 258 258 258 257 257 257 257 257
291 286 284 283 280 277 278 280 289 294 290 288 288 280 275 282 279 275 275 279 280 274 279 278 275 280 278 277 277 285 281 279 277 279 274 282 278 273 278 272 278 278 271 273 273 284 271 270 270 270 272 271 272 271 261 260 259 259 259 259 259 259 259 258 259 262 268 269 264 259 260 262 262 258 256 255 257 258 257 256 256 256 255 256 255 256 256
283 279 279 279 278 280 285 290 295 289 285 279 280 279 270 276 275 271 280 272 270 277 279 273 279 279 280 277 277 276 283 279 275 276 277 279 283 275 277 273 276 275 270 271 272 280 273 269 270 269 271 273 274 264 259 260 258 257 257 257 257 257 257 257 256 257 257 257 257 257 257 256 257 256 255 255 255 255 254 253 254 254 254 254 256 256 255
283 282 279 277 281 280 284 287 284 284 281 275 274 275 272 267 272 275 274 271 271 272 278 277 276 274 279 281 281 276 282 281 278 280 280 275 279 278 273 270 279 269 268 270 272 270 266 264 267 270 272 276 272 258 259 257 256 254 255 254 255 255 255 255 255 254 254 254 254 254 253 252 252 252 253 252 252 252 252 252 252 252 253 253 253 254 255
285 282 281 283 283 283 282 281 280 274 272 275 272 268 270 271 272 268 268 269 270 272 271 276 273 276 275 279 279 281 278 278 280 278 275 272 280 275 272 268 270 268 267 270 273 268 271 266 270 267 276 267 256 258 258 255 254 253 253 254 254 253 254 253 253 252 253 253 253 253 253 251 250 250 251 250 249 250 251 251 251 251 252 252 253 253 254
291 289 286 280 277 274 276 273 275 276 268 267 267 264 269 265 266 269 270 272 270 273 272 277 277 282 278 279 276 277 277 281 278 275 275 274 278 272 267 267 268 265 269 273 273 271 267 268 267 272 265 255 256 257 256 255 253 253 253 253 253 253 253 252 252 252 252 252 251 251 250 250 249 249 249 250 249 249 250 251 251 251 251 252 252 253 253
286 284 279 274 275 274 275 268 275 271 267 268 268 264 265 266 266 267 266 268 268 271 277 275 276 277 273 280 278 277 278 279 280 274 272 274 270 268 269 265 268 270 270 269 270 269 270 266 271 267 252 253 252 253 252 252 252 252 251 251 252 253 253 253 253 252 252 252 251 251 250 249 249 249 249 248 249 249 249 249 251 252 252 251 251 252 253
280 276 274 273 271 272 272 265 272 269 265 265 271 268 268 266 268 268 269 274 274 274 278 279 279 278 276 277 277 277 280 275 279 273 270 272 268 268 267 268 266 263 267 267 263 263 261 265 261 248 252 253 254 252 251 251 251 252 251 250 251 251 251 251 251 251 251 251 250 250 249 249 250 249 248 249 249 249 248 249 251 252 251 250 251 251 252
277 274 273 270 266 268 267 265 266 263 266 269 266 267 270 271 271 270 272 269 275 277 276 278 278 279 276 276 276 275 274 274 272 272 273 271 271 267 268 268 267 265 263 264 264 266 269 272 269 259 257 255 253 251 251 250 250 250 251 250 250 250 249 250 249 249 250 251 250 250 250 250 249 248 249 249 249 249 248 249 250 251 251 250 252 252 252
275 273 270 269 267 266 266 264 265 265 263 263 264 269 273 273 272 272 268 268 277 278 279 279 279 279 276 273 274 272 271 271 271 272 272 267 267 270 273 269 265 265 265 263 264 263 268 271 260 259 256 253 251 250 250 250 249 250 249 250 249 249 249 249 248 249 249 250 249 249 249 249 249 249 249 250 249 249 249 250 250 250 251 250 252 253 252
273 272 269 266 264 264 263 259 258 257 256 256 255 257 258 259 266 268 265 263 274 279 277 277 274 275 273 272 274 274 269 267 270 268 271 271 271 266 266 265 264 264 263 267 268 271 269 259 256 254 253 252 250 250 249 249 249 249 249 249 249 249 249 248 248 248 248 248 249 249 248 249 247 248 248 248 248 250 249 248 249 249 250 249 249 251 251
264 262 263 260 258 257 256 257 259 261 259 258 258 258 259 264 269 265 262 258 270 278 279 278 277 277 272 274 273 272 270 272 269 269 270 266 266 265 266 263 264 263 265 267 271 267 261 254 252 251 251 250 250 250 250 249 249 249 249 248 248 248 248 248 248 249 249 247 246 247 246 246 248 247 248 247 246 249 250 248 248 248 249 249 250 250 250
261 258 254 256 259 259 258 258 261 260 261 262 262 262 261 264 266 262 261 265 275 278 278 279 279 276 272 271 267 269 270 268 269 270 267 265 264 262 264 261 263 266 270 262 258 253 250 250 251 250 250 249 250 249 249 249 250 249 249 248 248 248 248 248 248 248 245 245 245 244 245 246 245 244 247 248 249 249 249 248 248 247 248 248 248 249 249
258 253 249 247 252 254 255 262 263 261 261 263 264 260 259 264 265 263 259 257 268 277 276 273 271 270 270 269 269 266 266 271 270 268 269 267 263 264 265 266 269 268 259 249 250 250 250 251 251 250 249 249 248 249 249 250 250 249 249 249 249 248 248 247 248 248 244 243 245 249 245 244 244 245 247 247 247 249 248 249 250 248 247 248 247 248 248
257 254 251 251 251 250 250 252 254 254 255 255 255 256 257 259 258 257 259 258 269 275 272 269 270 268 267 267 268 269 270 269 268 267 264 261 260 267 265 265 261 254 252 249 249 249 249 248 249 249 249 249 249 248 248 248 247 246 246 246 246 247 246 244 243 244 244 244 243 243 244 244 244 245 248 247 247 247 246 246 248 248 248 247 247 248 247
Wind_Speed
6 7 9 10 9 7 6 5 4 2 5 3 3 1 2 1 1 1 3 2 2 3 3 2 5 6 3 3 1 1 0 2 1 2 0 1 1 0 0 2 1 0 1 1 3 7 3 7 8 3 4 4 7 2 2 5 8 8 1 3 2 6 3 3 1 2 4 3 3 1 2 1 2 1 2 5 5 6 7 5 7 7 1 1 2 3 8
5 6 6 7 9 9 7 6 6 4 5 1 0 3 0 1 1 1 2 2 1 4 7 7 9 5 0 6 3 4 2 1 2 2 2 2 1 2 1 2 0 1 1 1 5 4 4 3 4 1 2 2 0 1 3 9 5 8 7 9 7 5 4 8 2 1 3 4 3 1 2 1 2 2 3 4 3 3 2 4 1 2 7 7 6 11 12
4 5 6 8 9 10 9 7 7 5 7 4 2 1 1 0 1 1 3 3 1 7 2 5 6 6 6 7 7 6 3 4 7 3 3 2 3 1 1 2 2 1 0 1 1 1 1 2 3 2 3 3 2 4 7 3 5 3 3 2 7 5 5 8 7 10 10 8 10 10 6 7 3 2 4 6 9 6 4 5 2 6 5 7 6 10 11
5 5 6 7 9 9 10 9 8 7 7 6 4 1 2 0 3 1 1 3 1 3 2 1 3 7 6 6 5 7 6 2 3 6 2 4 2 3 3 3 3 1 0 1 0 1 2 2 3 4 4 2 1 1 6 3 3 3 6 2 7 3 1 6 10 12 12 11 7 4 5 4 6 4 9 6 6 9 7 4 5 13 7 5 8 12 16
6 6 5 6 7 9 9 10 9 8 9 8 3 2 1 1 1 3 3 3 3 1 0 2 2 6 6 5 4 8 8 2 0 4 2 3 5 1 2 3 3 3 2 4 1 1 2 1 4 1 4 2 1 2 3 4 5 3 2 3 5 2 3 6 5 6 5 5 3 4 8 10 9 9 7 8 8 9 11 11 14 8 3 13 11 8 9
8 7 6 6 6 8 10 11 10 9 11 8 4 0 1 2 3 2 3 3 6 7 7 7 5 1 5 4 3 7 9 4 5 1 2 1 3 4 0 3 7 8 8 3 2 3 2 1 3 2 1 1 1 2 3 2 5 2 1 1 4 5 6 3 4 3 3 5 5 6 3 4 4 5 6 6 7 7 13 16 17 8 11 18 11 5 11
8 8 8 7 6 7 10 11 11 9 9 11 4 3 2 1 1 3 2 1 2 6 1 7 4 5 5 1 4 7 10 11 7 4 3 3 2 4 4 6 7 7 6 6 5 4 4 5 3 3 3 2 1 1 2 1 4 1 1 2 1 4 2 3 1 2 2 4 4 3 5 1 3 4 6 6 9 12 14 15 10 7 7 6 5 3 11
10 9 9 9 8 7 9 11 13 11 10 7 4 4 3 3 2 3 1 0 2 0 2 7 6 6 6 3 6 5 12 15 8 2 6 4 6 5 8 6 7 8 9 10 8 7 7 5 4 2 3 0 1 3 3 1 2 5 3 3 0 4 3 5 2 1 4 6 4 4 4 4 3 4 6 9 10 11 10 5 2 3 5 9 12 11 16
11 10 10 10 10 8 7 9 12 12 11 4 5 2 3 1 0 1 2 1 3 1 2 5 9 7 7 5 6 3 5 12 10 4 3 10 7 8 15 11 5 4 7 7 10 8 10 9 10 8 8 7 7 3 3 4 2 2 3 2 1 1 2 2 2 1 3 4 4 6 4 3 5 7 9 12 13 10 5 6 6 5 10 8 4 7 14
12 12 11 11 11 10 10 10 12 14 16 5 5 5 2 2 1 2 2 1 2 2 1 2 6 9 12 11 11 7 10 2 7 4 3 5 7 9 12 7 7 4 9 12 13 10 6 8 8 8 9 4 3 10 6 12 9 4 6 0 2 2 3 2 3 3 7 6 0 2 6 3 4 11 19 18 9 9 8 6 7 12 11 7 7 14 12
13 13 12 13 12 12 12 11 10 14 10 7 6 3 5 6 3 1 2 2 2 2 3 5 8 3 2 8 3 2 1 5 6 12 4 6 7 5 8 9 9 5 10 11 5 6 6 5 3 3 7 4 4 3 5 4 3 8 11 3 3 4 6 4 4 5 5 5 3 4 4 10 15 13 8 9 17 17 14 14 17 16 11 8 7 8 8
14 14 14 13 14 14 13 13 13 13 12 6 4 4 5 4 3 2 3 7 6 4 5 6 9 1 2 5 6 6 6 5 5 4 4 1 4 3 5 7 8 6 2 5 11 9 7 4 6 7 7 6 6 4 5 6 2 2 2 9 8 10 10 7 5 4 6 3 6 4 12 12 12 2 7 13 15 12 17 20 16 10 5 5 10 14 16
16 16 16 15 15 15 15 15 15 14 13 7 6 6 4 6 6 4 3 4 5 6 6 4 2 3 2 0 6 10 7 4 1 1 1 0 0 3 4 5 9 4 6 12 12 10 6 3 5 3 2 3 3 3 4 1 2 0 2 3 8 9 10 4 1 3 3 4 6 9 10 5 2 4 3 3 2 3 1 5 7 8 11 11 14 16 17
17 17 16 16 16 16 16 16 16 15 14 9 7 6 5 8 7 5 4 2 6 3 3 3 1 2 5 4 4 3 3 4 6 0 1 1 1 3 2 1 2 6 11 12 8 8 4 1 2 1 1 2 2 1 4 1 0 4 3 3 2 9 4 4 5 4 8 6 9 12 6 9 6 6 2 6 5 6 9 9 8 8 9 11 12 14 13
18 18 18 17 17 17 17 17 16 17 14 12 7 6 6 8 8 6 3 4 6 3 7 9 8 11 4 1 3 2 3 4 6 8 1 1 0 2 2 1 2 6 8 9 1 2 4 3 2 4 2 5 7 7 2 1 2 5 8 6 5 5 10 4 9 5 6 9 8 3 7 11 14 6 1 3 5 8 7 7 6 1 3 3 8 10 6
19 19 19 18 18 18 18 17 17 17 16 11 4 7 7 8 7 5 4 6 5 8 10 14 5 3 4 4 4 5 5 4 5 4 1 1 2 2 1 1 1 1 1 3 3 5 3 4 4 8 7 6 1 2 3 1 1 3 0 5 6 4 3 2 8 4 5 6 8 7 9 9 3 2 5 4 4 9 6 4 9 2 4 1 4 4 2
20 19 19 19 19 19 19 18 17 18 17 15 7 8 8 8 8 7 6 5 6 11 4 9 5 4 2 2 1 3 4 6 5 5 4 6 3 1 0 2 2 2 2 5 1 3 5 3 2 3 1 4 5 7 1 2 2 1 1 4 7 6 4 4 6 4 5 5 6 7 3 5 3 2 2 0 5 8 7 5 6 6 4 4 3 3 2
21 21 21 21 20 20 20 19 19 18 18 18 8 6 6 6 9 7 6 6 8 10 8 9 12 8 11 6 5 1 4 3 3 1 2 2 2 1 2 1 3 1 1 6 5 5 6 6 10 7 9 3 2 3 7 6 4 6 7 11 7 8 4 8 13 10 9 10 6 3 6 4 3 5 5 3 1 2 5 11 3 4 5 4 4 2 3
22 22 22 21 20 20 20 20 20 19 18 18 8 3 7 7 7 9 5 3 6 10 8 8 9 12 7 4 4 4 4 7 6 4 1 1 4 5 6 1 1 4 1 4 3 6 9 6 3 2 5 4 2 8 2 4 6 2 8 7 1 6 3 1 5 9 10 9 8 7 6 6 7 4 6 4 2 4 8 3 2 10 6 4 5 3 3
21 23 23 23 22 21 20 20 20 19 19 19 12 6 3 6 7 11 9 7 3 9 3 6 7 13 6 11 8 8 1 2 5 6 7 9 1 5 4 4 2 2 1 2 6 3 7 9 8 3 5 4 5 4 0 4 1 8 5 8 8 9 7 8 11 6 5 3 7 5 9 3 4 7 2 2 6 4 4 4 1 2 6 5 4 3 2
20 23 25 25 23 22 21 21 20 19 19 19 15 5 6 4 7 8 9 8 4 7 7 5 5 12 8 10 14 14 13 13 9 9 4 4 6 7 10 8 8 5 6 7 10 7 4 7 7 4 3 6 5 2 6 5 2 5 7 8 6 7 6 3 6 7 5 9 8 8 8 2 2 6 7 4 5 2 6 9 7 3 4 5 4 4 4
18 21 25 24 22 23 22 22 21 19 19 19 16 5 7 4 6 7 7 9 8 9 0 2 3 5 9 8 8 9 12 10 11 8 8 4 4 8 2 3 4 3 2 2 2 1 1 2 1 3 5 3 1 7 3 8 4 3 1 3 1 8 10 6 8 8 9 7 6 2 2 4 1 3 2 4 1 2 6 6 7 6 6 4 5 6 4
16 18 21 23 25 26 22 22 21 20 20 19 14 6 8 4 4 4 6 9 4 4 1 1 3 6 4 5 6 8 8 7 7 5 6 6 3 2 4 4 4 2 0 2 5 4 3 4 4 3 1 1 7 4 1 2 3 2 6 4 3 3 3 1 4 4 0 1 0 2 1 2 1 1 2 2 3 2 4 5 4 2 3 6 1 1 1
14 15 18 23 22 21 21 22 22 20 20 19 15 5 5 4 5 5 5 6 5 6 6 7 6 8 10 14 13 7 4 4 5 5 4 8 6 2 2 2 1 1 0 3 3 6 5 3 4 2 4 5 5 4 8 6 5 4 2 2 1 3 1 1 2 2 7 7 4 4 6 1 1 1 2 1 1 2 3 3 1 4 5 5 4 3 3
14 14 17 20 20 20 23 23 22 21 20 20 16 8 4 3 4 7 7 7 5 8 9 3 12 14 14 8 3 5 6 7 5 8 7 8 10 9 9 6 5 6 6 5 2 6 2 3 1 1 6 6 8 7 2 6 6 3 5 5 1 3 3 3 2 1 6 4 3 3 1 1 2 2 5 4 2 1 4 3 3 4 4 5 4 3 5
15 14 14 16 17 21 23 23 23 22 21 21 16 7 7 7 5 6 4 5 1 0 5 10 8 3 3 4 10 9 8 10 7 6 8 8 8 10 9 3 2 2 4 1 2 7 4 1 2 1 7 6 3 4 4 6 3 0 5 8 7 3 4 4 4 6 1 2 1 2 2 2 2 3 2 1 0 3 6 6 7 6 7 7 5 6 3
15 15 15 14 17 19 22 24 23 22 23 21 13 8 7 4 7 9 8 6 5 8 8 9 7 3 4 13 10 7 4 7 8 10 8 6 6 5 7 7 8 3 5 2 3 5 3 3 4 5 2 5 3 4 2 1 3 3 3 4 1 3 6 1 2 1 3 8 6 5 5 4 2 1 1 3 3 6 6 5 8 8 7 6 6 4 4
15 15 16 15 16 18 21 23 23 20 19 20 14 8 6 7 7 9 9 9 12 8 2 1 4 5 4 10 8 6 9 13 14 12 9 7 9 10 10 11 8 6 3 7 1 2 2 6 7 3 1 1 2 3 1 0 4 2 1 6 5 9 6 6 6 7 7 4 3 6 4 3 3 8 2 3 2 5 8 6 5 5 4 3 4 4 3
17 17 17 16 17 18 19 21 22 21 24 20 6 6 5 5 6 10 10 9 7 7 9 9 5 3 4 5 7 6 9 14 14 12 9 9 11 11 12 12 10 7 4 4 3 3 4 4 2 6 3 6 5 4 3 3 4 9 7 6 4 3 5 7 7 4 1 2 5 6 2 1 5 7 6 3 1 7 9 5 4 3 2 2 1 1 2
19 18 17 17 16 17 18 19 20 21 22 8 4 2 4 4 7 9 11 10 8 3 7 7 10 6 1 2 2 4 6 9 12 15 17 14 13 12 12 11 6 5 4 6 6 2 4 3 1 1 1 1 4 3 2 3 4 7 4 4 5 3 2 3 7 4 2 2 4 3 3 5 8 10 7 5 2 4 7 5 3 1 1 2 1 2 2
20 19 18 18 19 18 18 20 21 22 19 6 5 4 5 6 6 10 14 12 10 8 5 5 9 3 5 4 2 12 11 8 9 12 14 13 10 10 8 8 1 7 4 2 3 5 3 1 2 1 0 1 4 2 4 4 2 3 6 7 6 5 4 4 2 3 4 4 2 3 7 5 5 5 6 6 4 4 4 3 3 2 2 2 2 3 3
20 20 19 19 19 20 19 20 20 20 9 9 11 9 5 4 4 11 17 12 10 8 9 7 6 6 3 2 2 3 9 11 9 5 2 4 2 2 3 6 7 3 5 6 3 2 2 4 4 3 4 4 5 2 2 3 3 4 4 3 2 5 4 5 4 3 5 1 5 5 4 4 1 3 3 4 5 6 6 5 3 3 3 1 2 3 4
21 21 20 19 20 21 20 21 23 16 8 12 16 17 9 2 13 16 15 12 9 5 5 6 6 2 4 5 2 2 6 4 4 5 5 2 7 5 5 1 5 3 2 6 2 5 3 4 3 5 6 1 5 3 4 6 7 6 10 4 4 4 6 5 6 5 4 6 0 7 6 7 5 2 2 4 7 6 6 5 3 2 2 3 4 3 3
21 21 22 20 21 22 22 22 23 24 19 11 9 11 12 15 12 17 13 9 3 4 6 5 6 9 5 2 1 5 10 12 8 10 8 2 2 6 6 5 2 7 4 7 4 4 2 2 5 4 2 2 1 3 4 6 8 13 7 3 5 5 5 6 4 5 4 4 6 6 6 5 5 4 5 5 6 6 5 4 5 7 6 5 5 5 5
22 21 21 23 22 22 22 21 11 8 9 9 10 10 12 22 16 15 17 9 7 5 7 5 4 6 5 2 4 5 7 9 10 11 11 5 2 7 3 6 3 7 5 5 2 3 5 5 5 4 6 3 3 4 5 11 16 10 3 5 3 6 5 4 0 1 0 1 5 4 3 4 6 3 3 4 5 5 7 5 4 5 6 5 5 5 5
21 22 22 22 21 15 9 10 6 6 8 8 9 11 21 24 24 12 12 9 7 5 7 5 9 10 8 12 9 3 4 9 8 7 3 6 2 1 3 5 7 6 2 5 5 3 5 4 6 4 4 7 9 8 15 16 15 8 8 11 10 9 6 5 6 7 1 1 3 5 6 4 6 5 4 4 5 4 5 4 5 4 3 5 6 7 6
21 21 21 18 5 1 8 7 4 7 9 10 11 12 19 15 4 4 2 3 3 0 6 7 10 12 13 5 1 2 9 8 5 5 7 8 6 2 5 6 8 3 4 4 4 8 6 2 5 4 7 10 13 16 12 10 11 10 8 5 8 4 5 7 7 9 9 6 5 4 3 4 4 3 4 4 4 3 4 4 5 4 4 6 5 6 6
23 19 7 5 4 5 5 5 6 9 16 14 13 8 8 10 5 6 3 6 2 4 3 4 10 7 6 9 7 4 8 9 11 9 4 4 6 2 2 3 5 6 8 7 7 5 4 2 3 9 10 9 4 3 7 3 3 3 5 8 7 6 6 6 5 8 6 3 0 2 1 2 2 1 2 0 1 2 2 2 3 2 3 4 5 6 7
16 7 6 5 4 4 6 6 8 16 11 7 6 3 3 4 7 6 7 5 4 7 5 8 11 9 11 12 5 3 5 7 13 8 8 8 7 5 3 6 4 5 2 4 6 8 3 4 3 4 9 6 7 7 5 7 7 5 6 6 7 6 6 6 3 3 6 6 3 4 4 7 7 4 2 1 0 1 1 2 2 3 3 5 5 5 6
4 8 6 4 7 11 6 7 23 14 5 5 3 4 5 2 6 5 6 6 5 6 6 9 5 9 14 16 12 9 3 6 13 13 11 6 1 6 3 3 1 5 7 8 5 8 8 7 4 4 11 10 11 4 10 8 10 6 7 7 7 8 5 6 5 5 8 8 7 6 5 4 3 4 2 1 1 2 3 3 3 3 4 5 7 7 7
7 4 4 7 6 2 4 8 3 3 4 3 3 2 2 1 3 3 4 9 8 3 3 6 4 3 6 12 15 12 4 1 2 2 4 6 1 6 6 7 2 5 3 6 2 5 3 3 2 9 14 16 8 9 9 8 8 6 4 5 5 5 6 6 6 3 4 6 5 4 4 4 3 2 1 1 2 3 3 4 4 5 4 5 6 7 6
6 5 2 2 2 1 1 2 5 4 0 2 4 4 4 2 1 1 1 9 9 3 4 7 9 11 8 9 9 6 3 1 3 2 3 2 2 4 4 1 1 5 4 3 5 3 4 3 8 5 15 6 7 10 12 11 7 9 7 5 5 4 6 6 6 4 3 5 4 3 2 3 1 1 1 1 2 3 3 4 4 4 5 5 5 6 7
11 7 4 2 2 2 2 2 3 3 4 2 3 3 3 3 4 7 4 1 1 3 3 2 2 5 3 3 3 1 3 2 4 1 2 6 1 3 3 1 2 3 3 3 5 4 5 7 7 15 4 4 7 10 7 8 9 7 7 6 4 4 5 5 5 5 3 4 3 3 1 1 0 2 2 1 2 3 4 5 5 4 5 5 5 5 6
7 5 5 2 4 4 3 9 3 4 3 2 7 8 6 9 2 2 2 4 3 2 5 11 8 13 7 2 5 4 2 1 1 3 2 1 4 3 2 2 4 3 4 3 4 7 8 3 10 8 2 3 3 5 9 10 10 9 7 4 4 4 5 4 4 5 4 3 3 1 3 1 2 2 1 1 2 6 6 6 5 4 4 4 5 6 7
7 5 3 3 4 2 3 4 1 3 6 4 7 8 6 11 8 5 7 3 4 8 6 8 12 13 11 5 3 2 1 4 0 5 3 3 4 0 3 5 2 3 4 5 3 1 3 6 5 2 6 7 9 7 5 6 8 9 10 7 5 5 4 5 4 4 2 3 1 1 1 1 0 2 2 3 3 3 3 5 5 3 4 4 5 5 6
10 8 6 5 3 2 3 1 2 2 1 3 4 5 8 8 7 6 5 4 5 8 11 12 13 14 12 4 7 5 1 2 4 1 2 1 4 2 2 1 4 4 2 2 4 9 13 14 10 9 10 11 10 8 6 7 6 6 10 10 6 5 4 5 4 3 2 1 1 2 1 0 1 1 2 3 3 4 3 4 4 4 4 4 6 6 6
2 1 2 1 3 2 1 4 5 3 3 6 7 10 10 10 7 6 3 3 9 9 12 11 11 13 14 5 4 3 1 1 3 2 3 2 3 2 2 3 3 2 7 5 5 4 8 11 5 6 10 11 10 8 8 7 6 7 7 7 7 6 5 4 3 3 1 2 0 0 1 1 1 2 2 3 3 3 3 3 4 4 3 4 6 5 6
8 2 3 4 4 4 7 3 2 2 1 1 2 1 1 1 5 4 3 2 5 8 9 10 8 4 4 4 2 8 4 1 4 3 2 3 3 3 1 3 1 2 2 7 10 10 8 3 7 8 8 8 11 13 10 9 7 8 8 8 7 6 5 5 3 2 1 1 1 1 1 1 1 1 2 3 4 5 4 3 4 3 4 4 4 5 5
4 2 3 3 2 2 1 1 6 5 2 2 1 0 2 6 8 6 1 2 5 13 12 14 11 9 4 1 5 5 4 3 4 4 3 2 3 4 4 6 5 4 6 8 11 7 5 5 6 9 11 11 9 8 8 7 8 9 9 8 7 7 6 5 3 2 1 1 1 1 1 1 1 2 2 2 2 4 3 3 3 4 3 3 4 4 5
6 5 7 4 5 4 0 2 6 2 1 2 0 2 1 2 4 2 2 2 6 9 3 6 2 5 3 4 1 0 2 0 3 2 3 3 3 2 4 3 4 9 10 7 5 3 4 6 9 11 10 10 9 9 10 8 7 8 6 6 6 6 5 5 3 3 1 1 1 1 3 1 1 1 1 2 3 3 3 3 3 4 5 4 4 4 5
3 6 3 3 1 1 2 9 10 11 8 8 6 2 1 4 4 5 3 1 4 10 9 9 2 4 4 2 3 4 3 2 5 4 5 5 2 4 6 9 10 7 3 3 3 4 6 7 8 10 11 10 9 9 8 9 8 8 7 7 7 6 5 4 4 4 2 1 1 2 1 1 2 2 4 2 2 2 3 3 3 4 4 5 4 4 5
4 4 2 2 4 2 2 4 5 4 3 3 3 2 2 2 3 4 5 2 4 13 10 4 5 3 2 3 2 1 3 4 2 3 3 1 2 6 7 6 4 3 7 8 7 5 5 4 4 6 8 10 11 9 9 8 8 7 7 7 7 7 6 5 4 3 3 3 2 2 0 2 3 1 1 2 4 4 5 4 5 4 5 4 4 5 4
Wind_Direction
259 238 227 236 250 254 212 221 210 205 73 52 289 53 22 58 148 322 310 344 178 114 143 157 172 193 220 55 18 187 109 226 200 115 209 77 168 72 88 204 120 258 130 145 146 159 166 166 199 182 181 233 205 229 142 128 148 134 75 119 209 102 96 106 289 311 313 319 318 36 61 171 310 315 108 131 196 177 175 166 185 171 210 203 261 246 261
273 249 247 242 243 249 264 213 229 185 125 149 49 63 165 110 111 33 321 15 151 160 186 186 193 188 105 167 219 176 215 209 246 202 225 158 100 169 177 1 238 139 99 105 174 200 151 237 161 269 217 184 253 313 65 162 161 149 209 163 215 159 265 141 130 24 339 345 342 353 329 82 183 185 215 175 117 86 132 104 100 195 218 183 162 237 261
292 271 230 239 231 240 262 256 217 191 142 123 106 137 201 72 340 32 313 4 228 196 229 182 166 174 171 170 180 163 230 220 227 198 203 150 161 129 250 182 140 62 141 99 96 26 140 154 223 122 182 191 2 13 27 169 152 221 235 161 168 166 180 143 161 185 191 206 198 212 218 207 232 210 195 197 161 149 119 218 176 218 254 170 204 243 246
285 268 259 233 231 222 224 253 246 191 178 117 67 293 43 234 139 258 6 351 19 350 71 72 154 173 169 178 191 171 196 258 239 173 214 185 183 170 143 11 88 105 78 72 181 149 16 114 196 149 189 242 341 287 339 72 159 190 106 124 139 174 170 184 187 193 207 211 206 246 124 95 175 234 176 198 197 183 176 110 176 215 217 188 237 231 263
273 279 263 255 237 231 228 236 252 216 185 134 112 55 109 351 115 154 197 29 336 262 206 181 168 191 170 187 163 192 199 177 307 175 211 196 170 152 156 164 151 247 128 196 196 171 61 4 85 188 155 253 224 321 85 57 50 198 110 19 77 91 165 224 184 223 228 171 182 192 165 181 203 192 202 191 174 184 178 188 222 205 204 253 230 229 244
269 268 262 248 255 241 229 227 232 236 193 130 90 69 89 89 265 112 218 128 203 195 235 209 181 294 175 212 161 193 187 191 194 123 235 154 169 148 321 173 202 175 178 128 168 175 152 141 186 198 233 119 340 81 351 69 301 356 84 19 121 145 183 249 134 238 180 165 141 147 127 169 172 176 153 172 189 168 190 214 222 184 202 230 245 158 228
262 262 262 258 239 236 238 229 225 225 197 133 120 124 247 163 327 236 334 147 284 196 58 162 184 176 172 212 151 178 190 203 199 168 153 131 238 194 212 218 201 191 165 159 196 162 164 246 213 155 193 153 105 48 350 256 22 64 86 48 159 105 263 187 127 168 171 217 175 172 133 158 102 144 174 170 173 202 207 221 227 197 234 265 292 232 245
260 258 259 257 251 239 232 236 224 216 185 135 132 199 126 222 142 293 1 58 33 72 105 157 168 197 184 182 226 192 191 202 188 194 163 175 212 186 221 214 190 192 186 177 194 199 207 211 197 206 130 34 92 199 184 184 356 6 179 140 294 119 255 107 132 126 242 229 193 149 163 155 216 227 201 204 204 214 215 221 208 138 287 275 272 285 280
259 257 252 251 251 246 235 230 234 214 177 156 177 213 156 193 170 120 100 62 276 108 123 149 175 192 202 218 226 185 217 210 185 208 197 190 181 179 208 203 151 190 184 190 212 216 205 211 228 198 168 210 208 159 260 131 93 32 354 354 336 109 225 60 90 202 281 237 178 199 139 151 210 249 232 221 216 218 201 200 200 178 230 244 281 283 262
257 257 252 250 251 245 244 232 225 221 184 181 167 215 153 70 307 79 106 53 244 151 203 122 125 213 210 204 201 194 209 172 156 213 247 221 205 189 203 184 138 178 185 204 210 208 192 212 219 217 202 204 159 200 179 165 166 182 178 333 122 140 113 125 113 217 249 273 78 201 127 117 234 234 237 233 229 223 221 218 198 210 204 219 222 241 249
250 254 253 251 249 243 243 243 234 233 196 192 167 172 141 186 179 81 53 116 312 165 139 204 189 230 147 212 223 216 220 175 186 188 216 192 228 203 176 155 174 195 200 210 203 127 120 108 96 79 84 102 113 124 123 146 197 174 160 151 181 160 163 212 153 217 236 265 107 108 127 226 237 242 219 198 230 230 230 239 232 225 186 214 227 254 283
248 249 251 250 248 245 240 242 234 232 218 215 169 191 179 137 113 92 130 186 231 157 170 216 193 343 122 199 190 210 211 201 209 235 225 243 211 144 148 176 172 216 236 106 106 108 104 75 65 51 46 49 56 18 86 135 99 42 158 163 164 175 180 199 177 173 211 128 119 138 217 229 239 67 153 199 215 221 227 236 247 257 237 234 260 259 256
247 244 245 247 246 244 242 240 240 237 222 209 201 194 174 159 162 157 141 165 233 171 201 240 213 238 263 145 185 220 209 233 289 46 36 203 341 175 182 169 191 203 140 123 125 111 101 121 58 90 28 12 34 27 327 273 202 359 58 124 150 171 175 141 196 137 70 132 166 225 231 240 344 277 235 24 129 223 188 282 269 243 233 223 232 240 250
248 246 243 244 246 245 244 241 243 241 236 211 206 198 167 169 177 176 173 150 235 194 218 319 344 246 228 216 200 226 189 229 260 223 259 260 207 222 264 258 228 153 152 133 117 112 75 43 114 96 308 32 2 348 268 271 234 167 207 252 136 161 113 148 203 195 208 174 205 228 354 319 293 279 227 158 171 162 167 231 249 224 216 215 229 242 251
249 245 242 241 242 243 241 242 241 242 234 227 210 218 187 191 198 184 175 186 228 211 183 219 195 219 187 208 148 153 182 209 210 249 199 3 82 225 212 265 291 169 154 130 79 64 153 132 131 139 241 168 208 225 3 232 283 211 199 180 148 148 168 219 184 226 184 204 221 215 227 241 250 231 199 187 167 149 175 173 267 270 260 235 215 237 253
246 246 243 239 239 241 242 241 243 242 243 227 207 226 213 197 210 206 195 187 183 235 219 219 191 119 169 217 193 177 188 175 203 218 323 253 248 332 270 250 320 106 41 71 126 133 145 179 194 193 208 201 201 77 275 214 280 311 97 167 153 207 177 183 190 200 146 210 213 210 206 236 220 201 196 223 176 148 132 163 246 219 200 257 137 135 178
248 244 242 241 238 236 237 240 240 241 240 230 205 222 230 201 199 203 202 209 204 238 192 190 145 147 126 227 209 212 183 196 164 185 218 225 210 214 284 12 338 119 228 113 156 112 175 186 160 194 238 138 170 209 117 54 153 354 61 134 177 164 163 142 207 224 208 199 224 235 207 248 269 227 253 181 145 118 114 212 260 199 202 205 146 146 184
248 244 240 237 236 235 234 235 237 237 239 236 221 202 221 205 204 196 229 216 217 239 220 149 168 188 207 191 203 234 76 50 63 109 147 229 103 154 214 78 189 287 167 168 171 151 182 182 191 190 212 232 159 129 209 183 177 182 166 176 167 178 188 192 204 207 223 222 251 273 272 267 184 157 150 165 144 82 160 218 216 182 202 206 168 196 199
252 245 240 237 234 234 233 233 233 235 235 234 225 195 229 203 196 205 203 217 213 238 192 186 173 195 199 181 180 176 183 174 162 157 189 81 252 203 141 206 147 179 147 169 183 172 180 204 155 144 178 251 161 209 190 160 205 170 131 138 171 205 196 189 208 224 222 221 231 244 278 233 191 239 178 165 92 219 210 232 158 148 195 212 176 199 213
253 246 239 236 234 232 233 232 232 232 233 232 224 224 195 197 197 199 204 216 218 258 216 169 182 206 190 189 184 204 2 202 184 158 185 204 280 102 69 204 319 75 32 137 201 222 181 195 188 174 197 180 214 161 57 253 159 159 167 186 176 182 184 186 200 199 219 187 221 226 242 270 121 140 45 168 182 226 164 136 55 154 163 169 210 199 225
260 246 238 236 233 232 230 231 230 231 231 232 230 219 241 186 213 211 205 206 238 257 250 181 215 217 207 204 196 192 184 195 179 201 202 178 197 159 198 207 171 162 189 173 193 199 169 183 168 184 205 166 224 108 200 189 246 269 143 176 194 177 175 186 217 179 183 195 203 210 226 148 234 160 195 206 196 165 141 130 147 222 158 170 190 237 224
268 249 238 236 239 233 229 230 230 229 231 230 227 198 237 192 189 200 200 202 219 226 51 326 289 256 235 222 214 201 200 198 203 173 156 165 229 185 202 135 161 138 205 114 56 39 11 180 76 119 174 211 309 207 181 188 222 207 26 111 187 207 199 176 193 177 180 204 214 220 142 128 186 148 175 142 141 138 157 117 144 153 226 179 151 214 237
272 257 241 236 232 237 231 229 228 228 229 228 226 204 221 165 189 190 177 226 228 272 296 291 300 288 300 260 227 214 222 207 189 188 157 141 211 233 154 140 203 190 101 106 181 163 185 131 213 154 87 203 168 195 330 111 191 207 169 243 183 324 176 152 114 245 37 312 163 168 65 127 132 75 74 127 94 76 118 119 119 196 146 160 129 106 155
267 260 244 233 229 238 244 232 226 226 226 227 226 200 215 184 162 158 205 215 214 261 247 203 192 226 228 233 225 228 231 266 209 199 203 169 168 243 322 277 193 52 316 228 182 148 208 127 202 126 192 226 127 173 192 249 227 197 134 284 294 250 153 88 163 267 153 238 151 147 169 148 271 37 45 52 67 148 167 147 97 54 52 77 69 77 42
264 255 243 237 234 234 233 234 231 226 225 226 229 226 199 183 162 171 185 214 198 204 245 203 211 222 223 230 230 214 218 205 203 196 204 206 199 189 203 207 173 167 210 197 156 78 53 114 218 98 187 245 151 233 221 181 264 152 186 252 49 304 196 158 208 182 172 240 175 205 266 275 55 132 106 79 63 10 37 67 81 100 90 78 69 90 69
260 255 248 240 233 238 244 243 233 230 227 226 222 209 209 213 163 171 188 228 299 38 226 246 259 202 135 175 216 212 197 200 194 204 205 206 203 197 166 111 44 34 110 80 108 160 145 69 85 141 181 246 106 158 213 207 173 241 179 221 193 202 94 216 187 204 262 350 302 291 7 344 41 52 57 207 164 90 63 57 56 56 53 36 38 49 67
256 252 250 246 236 231 232 237 237 234 230 228 226 217 211 202 158 175 187 170 191 250 248 273 267 316 196 211 217 205 175 163 181 191 205 191 159 123 134 144 135 98 115 67 20 123 69 115 161 230 181 234 124 181 149 56 151 158 186 262 90 85 206 188 104 185 216 200 203 146 131 235 168 114 152 69 57 100 95 68 56 48 43 25 26 20 50
256 251 245 238 241 243 241 233 233 239 249 245 236 227 202 199 186 182 188 184 197 236 342 211 260 268 199 226 216 180 171 191 191 189 178 175 155 150 149 152 139 125 147 131 157 72 124 159 223 212 115 293 74 273 129 51 63 25 201 233 190 192 198 146 179 186 230 230 216 185 155 157 166 154 154 54 42 91 86 79 82 59 43 15 24 3 20
254 251 249 246 241 236 235 237 235 229 230 234 225 251 278 237 188 185 187 193 193 223 252 268 277 316 232 248 189 194 201 188 188 182 167 173 163 162 156 159 157 148 107 74 97 112 143 205 144 140 168 213 107 266 80 212 174 212 208 213 173 225 169 170 180 138 288 216 166 174 123 180 147 131 120 94 52 106 103 96 82 75 29 8 22 348 347
257 254 249 247 244 242 244 240 235 232 229 219 205 180 230 249 192 191 187 181 182 161 224 226 254 251 185 27 282 200 210 196 184 181 184 174 171 168 166 154 155 145 132 150 158 149 228 141 245 280 275 32 128 212 139 214 185 237 245 213 204 131 157 161 154 136 200 207 173 189 136 91 114 129 115 105 84 114 121 116 116 103 5 358 8 333 348
253 255 254 247 247 244 240 240 239 234 228 180 154 180 177 229 203 183 185 185 171 181 215 231 245 329 318 267 203 195 186 178 183 182 182 179 174 171 167 122 109 150 114 107 140 194 128 109 139 253 359 132 115 137 179 157 218 302 249 210 197 156 183 151 105 60 105 123 96 84 80 101 123 107 90 78 81 97 101 104 69 47 358 14 348 348 5
249 247 248 250 250 248 245 242 241 240 227 200 196 194 195 237 171 164 172 164 156 180 203 222 237 233 264 247 261 221 180 185 180 164 171 131 171 139 179 165 171 164 145 152 191 105 208 196 144 200 140 198 107 116 121 121 181 233 255 210 171 163 166 132 109 75 58 43 127 78 74 69 360 170 159 89 101 87 92 87 54 24 359 349 352 23 31
250 246 244 248 250 248 247 245 243 236 210 224 223 227 236 141 150 160 167 149 163 187 184 215 219 219 222 231 191 233 144 109 147 160 189 249 172 145 166 64 116 82 279 107 246 165 209 127 142 136 216 88 108 172 184 209 228 231 239 168 164 134 121 90 96 73 66 20 99 174 203 177 177 166 115 104 86 80 64 52 25 46 50 50 27 17 1
249 248 247 243 246 247 247 246 249 247 241 232 229 219 219 217 190 169 148 155 137 182 191 205 202 219 245 274 312 244 169 173 178 175 187 164 168 151 171 116 214 149 283 165 233 82 331 107 171 192 45 5 180 116 228 234 221 234 226 116 132 108 120 110 97 93 44 26 26 63 90 107 116 105 75 71 68 54 57 41 31 26 13 15 5 357 341
254 250 247 247 247 252 252 252 246 236 233 227 231 230 204 201 196 181 165 162 162 207 193 212 207 206 216 7 233 228 194 164 180 179 181 182 176 155 162 128 230 183 233 91 64 138 168 200 149 109 217 176 125 219 234 236 233 226 154 144 173 119 83 84 303 134 158 52 61 73 76 110 103 99 99 80 62 29 33 31 39 43 12 356 336 331 341
258 255 251 248 249 252 268 269 245 235 221 217 215 203 195 190 190 187 190 192 187 178 196 202 195 213 204 220 216 204 153 219 178 161 153 130 123 203 106 140 166 197 77 131 174 172 189 200 110 214 166 184 212 202 224 225 235 222 164 189 189 169 167 175 161 145 200 73 84 99 87 79 106 114 89 71 57 30 24 21 23 38 21 331 328 326 326
256 255 257 265 260 173 245 237 211 206 221 202 215 185 184 172 140 140 219 198 292 95 200 192 206 204 200 216 43 251 163 206 153 152 160 165 167 114 151 169 185 139 83 113 173 197 213 68 110 175 202 206 218 221 224 227 222 211 194 171 144 147 112 77 114 121 99 85 91 73 80 113 98 80 78 55 38 19 18 18 18 16 335 318 315 316 310
255 257 246 212 151 223 240 219 200 203 200 174 142 142 167 157 175 175 183 210 205 129 295 202 216 186 171 192 207 219 184 188 150 168 143 164 124 239 153 133 196 138 172 176 207 144 92 100 171 204 231 232 265 251 218 151 71 45 114 136 138 117 103 103 133 122 111 94 234 189 103 84 120 126 121 183 18 9 356 354 359 335 312 300 302 306 309
251 233 206 203 203 210 218 226 192 157 133 145 154 155 189 174 155 191 196 186 170 211 190 208 210 190 185 199 194 168 193 175 164 174 163 184 147 184 126 156 246 116 227 142 255 147 170 191 189 191 242 213 221 223 122 99 84 66 84 87 97 102 105 84 58 152 185 198 156 148 159 175 183 198 136 152 276 323 319 328 316 308 303 299 296 293 291
153 206 204 179 207 228 224 153 143 137 140 157 177 167 200 200 177 199 156 205 209 208 188 220 199 197 188 198 183 197 203 184 176 173 167 148 196 156 150 99 200 130 187 176 193 136 162 180 193 164 238 230 219 131 130 141 126 117 89 96 97 83 82 95 88 76 94 100 95 93 83 94 87 131 157 161 226 258 266 279 273 282 289 284 291 298 294
195 168 180 215 223 184 163 156 110 103 144 133 122 179 144 188 216 174 161 204 204 207 165 186 139 224 223 190 180 192 166 96 332 20 137 164 224 87 130 164 191 105 217 172 197 99 115 100 156 202 227 229 179 160 145 126 131 115 112 105 105 111 111 104 88 87 101 99 99 94 83 92 106 125 141 179 209 230 254 257 273 272 281 289 293 289 292
178 169 171 96 68 65 79 126 176 111 44 173 161 176 170 198 96 40 203 187 199 187 244 158 196 193 196 186 189 150 175 176 141 131 126 159 223 128 164 74 8 131 179 190 105 86 128 122 206 220 236 222 92 143 144 143 144 141 138 132 118 118 123 121 116 83 90 105 115 111 106 99 116 150 186 191 220 233 245 260 271 277 274 274 283 288 288
180 161 129 91 119 259 192 188 232 155 161 161 147 186 163 160 210 174 197 215 319 145 203 61 131 94 4 61 19 333 164 192 138 196 116 168 102 60 106 139 132 122 185 114 116 156 149 191 204 227 198 151 179 153 162 139 141 131 131 124 126 117 123 124 124 116 106 108 103 115 138 129 205 233 229 208 239 273 264 253 258 268 277 279 278 283 287
191 152 189 164 184 223 177 209 175 107 171 153 181 201 150 175 202 112 147 212 164 181 174 151 171 153 173 163 149 142 103 14 102 99 51 74 98 156 115 156 170 238 46 90 148 168 192 209 219 214 158 171 103 161 143 149 145 132 121 128 121 117 111 110 104 102 94 92 61 50 85 205 274 300 314 265 215 231 261 275 271 268 275 285 285 282 284
183 205 139 170 212 197 166 246 102 173 182 210 179 190 176 184 174 164 183 194 160 173 190 172 157 166 159 149 55 334 194 169 154 105 202 134 82 134 128 182 168 48 125 174 107 65 27 249 232 103 179 182 191 170 155 141 150 145 141 122 117 113 115 110 113 111 113 118 171 133 102 260 200 258 271 261 257 239 233 263 275 290 284 285 285 288 286
202 182 172 175 191 255 180 150 126 186 274 153 189 170 164 185 164 185 214 123 166 164 168 175 170 154 157 184 160 176 113 121 101 162 130 109 141 202 213 82 66 93 63 82 141 188 199 220 201 191 187 177 161 156 140 140 128 131 131 138 150 128 123 125 126 136 150 149 168 150 223 181 222 260 281 277 275 283 271 262 270 269 275 291 285 289 293
144 180 129 102 139 200 83 155 210 190 167 173 186 175 178 177 184 159 173 157 174 190 164 165 163 160 152 175 110 18 21 111 124 213 86 77 142 129 32 118 166 173 147 155 179 205 227 223 189 159 151 147 139 141 142 136 138 134 127 123 125 134 131 128 129 138 185 154 176 177 220 226 269 261 273 308 306 286 280 284 284 282 273 269 279 289 294
163 164 136 151 175 167 166 231 149 78 345 193 252 262 275 21 120 192 221 237 190 155 158 136 118 77 37 319 81 154 164 197 103 304 176 152 60 44 99 65 137 182 186 170 202 208 212 172 162 152 139 138 144 144 145 145 142 136 132 133 134 131 144 139 144 181 173 153 210 209 253 274 279 290 292 278 293 298 288 286 289 301 303 301 293 294 296
94 96 116 143 156 123 70 75 118 109 330 330 244 59 110 145 186 163 103 1 180 164 172 156 158 143 172 147 131 143 166 221 134 186 98 44 124 169 152 165 158 189 239 198 205 191 176 152 123 125 131 134 139 138 134 142 141 140 140 141 144 153 143 154 163 170 135 135 166 196 267 265 270 289 296 311 304 296 310 312 323 326 321 317 311 306 309
54 31 19 55 68 15 5 67 80 107 302 104 7 190 254 203 135 143 323 140 194 137 80 22 72 121 154 131 86 73 149 119 142 105 82 145 172 151 79 163 226 192 201 186 185 184 132 126 133 130 137 138 137 142 141 143 140 139 139 136 136 132 142 144 143 131 135 169 191 230 239 301 302 278 259 275 274 285 317 324 340 355 335 329 329 325 316
54 94 133 268 120 179 119 158 177 173 184 191 175 211 271 201 156 150 12 337 194 154 158 159 169 124 137 102 152 140 227 178 102 159 158 165 164 149 178 186 204 185 148 38 41 104 144 144 144 140 137 140 141 143 143 142 141 140 140 129 130 122 119 120 125 121 123 122 180 86 65 341 266 252 266 287 321 356 4 354 354 352 334 330 331 336 325
39 54 36 57 75 90 349 289 1 38 31 49 56 317 343 241 322 306 329 337 192 170 167 149 117 119 88 156 172 137 59 63 165 97 82 263 163 170 205 192 152 114 153 146 125 124 113 109 110 132 137 143 147 147 139 134 129 127 130 132 129 123 125 121 121 120 130 102 106 116 6 310 338 351 35 59 40 41 23 335 330 336 330 325 324 324 323